Wetterdaten: aktuell Freitag, 29.05.2020 06:15
Datum Zeit Temp. Aussen Feuchte A. Sonne Luftdruck Regen Richtung Richtung Sonnen-Zeit Windben
29.05.2020 06:15 7,8 C 53 % 84 % 1028,7 hPa 0,0 l/m N 5 5 min 0,0 km/h (0 Bft)
29.05.2020 06:10 7,7 C 53 % 89 % 1028,7 hPa 0,0 l/m N 5 5 min 0,0 km/h (0 Bft)
29.05.2020 06:05 7,3 C 54 % 85 % 1028,8 hPa 0,0 l/m N-NO 21 5 min 0,0 km/h (0 Bft)
29.05.2020 06:00 7,0 C 53 % 80 % 1028,8 hPa 0,0 l/m N 3 5 min 0,0 km/h (0 Bft)
29.05.2020 05:55 6,8 C 54 % 74 % 1028,8 hPa 0,0 l/m N 3 5 min 0,0 km/h (0 Bft)
29.05.2020 05:50 6,8 C 54 % 68 % 1028,8 hPa 0,0 l/m N 3 5 min 0,0 km/h (0 Bft)
29.05.2020 05:45 6,6 C 54 % 61 % 1028,9 hPa 0,0 l/m NO 54 5 min 0,0 km/h (0 Bft)
29.05.2020 05:40 6,5 C 54 % 53 % 1028,9 hPa 0,0 l/m NO 54 5 min 0,0 km/h (0 Bft)
29.05.2020 05:35 6,5 C 53 % 45 % 1028,9 hPa 0,0 l/m NO 54 0 min 0,0 km/h (0 Bft)
29.05.2020 05:30 6,5 C 53 % 38 % 1028,9 hPa 0,0 l/m NO 54 0 min 0,0 km/h (0 Bft)
29.05.2020 05:25 6,6 C 51 % 30 % 1028,9 hPa 0,0 l/m NO 55 0 min 0,0 km/h (0 Bft)
29.05.2020 05:20 6,7 C 51 % 23 % 1028,9 hPa 0,0 l/m NO 40 0 min 0,0 km/h (0 Bft)
29.05.2020 05:15 6,7 C 51 % 15 % 1028,9 hPa 0,0 l/m N-NO 22 0 min 0,0 km/h (0 Bft)
29.05.2020 05:10 6,8 C 50 % 9 % 1028,8 hPa 0,0 l/m N 11 0 min 0,0 km/h (0 Bft)
29.05.2020 05:05 6,9 C 49 % 5 % 1028,8 hPa 0,0 l/m N-NW 348 0 min 0,0 km/h (0 Bft)
29.05.2020 05:00 7,2 C 49 % 1 % 1028,8 hPa 0,0 l/m N-NW 348 0 min 0,0 km/h (0 Bft)
29.05.2020 04:55 7,1 C 49 % 0 % 1028,8 hPa 0,0 l/m N-NW 348 0 min 0,0 km/h (0 Bft)
29.05.2020 04:50 7,1 C 49 % 0 % 1028,8 hPa 0,0 l/m N-NW 348 0 min 0,0 km/h (0 Bft)
29.05.2020 04:45 7,2 C 48 % 0 % 1028,8 hPa 0,0 l/m N-NW 348 0 min 0,0 km/h (0 Bft)
29.05.2020 04:40 7,3 C 47 % 0 % 1028,8 hPa 0,0 l/m N-NW 348 0 min 0,0 km/h (0 Bft)
29.05.2020 04:35 7,5 C 47 % 0 % 1028,8 hPa 0,0 l/m N-NW 348 0 min 0,0 km/h (0 Bft)
29.05.2020 04:30 7,7 C 47 % 0 % 1028,7 hPa 0,0 l/m N-NW 348 0 min 0,0 km/h (0 Bft)
29.05.2020 04:25 7,9 C 47 % 0 % 1028,7 hPa 0,0 l/m N-NW 348 0 min 0,0 km/h (0 Bft)
29.05.2020 04:20 7,7 C 46 % 0 % 1028,7 hPa 0,0 l/m N-NW 348 0 min 0,0 km/h (0 Bft)
29.05.2020 04:15 7,8 C 46 % 0 % 1028,7 hPa 0,0 l/m N-NW 346 0 min 0,0 km/h (0 Bft)
29.05.2020 04:10 7,8 C 46 % 0 % 1028,7 hPa 0,0 l/m N-NW 345 0 min 0,0 km/h (0 Bft)
29.05.2020 04:05 7,9 C 44 % 0 % 1028,7 hPa 0,0 l/m N-NW 342 0 min 0,0 km/h (0 Bft)
29.05.2020 04:00 8,0 C 44 % 0 % 1028,7 hPa 0,0 l/m N-NW 341 0 min 0,0 km/h (0 Bft)
29.05.2020 03:55 8,0 C 43 % 0 % 1028,7 hPa 0,0 l/m W-NW 283 0 min 0,0 km/h (0 Bft)
29.05.2020 03:50 8,2 C 43 % 0 % 1028,7 hPa 0,0 l/m SW 216 0 min 0,0 km/h (0 Bft)
29.05.2020 03:45 8,4 C 43 % 0 % 1028,7 hPa 0,0 l/m SW 216 0 min 0,0 km/h (0 Bft)
29.05.2020 03:40 8,6 C 43 % 0 % 1028,6 hPa 0,0 l/m SW 216 0 min 0,0 km/h (0 Bft)
29.05.2020 03:35 8,9 C 43 % 0 % 1028,6 hPa 0,0 l/m SW 216 0 min 0,0 km/h (0 Bft)
29.05.2020 03:30 9,2 C 42 % 0 % 1028,6 hPa 0,0 l/m S-SW 210 0 min 0,0 km/h (0 Bft)
29.05.2020 03:25 9,6 C 41 % 0 % 1028,5 hPa 0,0 l/m O-SO 123 0 min 0,0 km/h (0 Bft)
29.05.2020 03:20 10,0 C 41 % 0 % 1028,5 hPa 0,0 l/m O 96 0 min 0,0 km/h (0 Bft)
29.05.2020 03:15 9,9 C 41 % 0 % 1028,5 hPa 0,0 l/m NO 49 0 min 0,0 km/h (0 Bft)
29.05.2020 03:10 9,6 C 41 % 0 % 1028,5 hPa 0,0 l/m NO 36 0 min 0,0 km/h (0 Bft)
29.05.2020 03:05 9,5 C 41 % 0 % 1028,5 hPa 0,0 l/m NO 46 0 min 0,0 km/h (0 Bft)
29.05.2020 03:00 9,3 C 41 % 0 % 1028,6 hPa 0,0 l/m NO 46 0 min 0,0 km/h (0 Bft)
29.05.2020 02:55 9,2 C 41 % 0 % 1028,6 hPa 0,0 l/m S-SO 161 0 min 0,0 km/h (0 Bft)
29.05.2020 02:50 9,2 C 41 % 0 % 1029,6 hPa 0,0 l/m S-SO 161 0 min 0,0 km/h (0 Bft)
29.05.2020 02:45 9,2 C 41 % 0 % 1029,6 hPa 0,0 l/m S-SO 161 0 min 0,0 km/h (0 Bft)
29.05.2020 02:40 9,2 C 39 % 0 % 1029,6 hPa 0,0 l/m S-SO 161 0 min 0,0 km/h (0 Bft)
29.05.2020 02:35 9,2 C 39 % 0 % 1029,6 hPa 0,0 l/m S-SO 154 0 min 0,0 km/h (0 Bft)
29.05.2020 02:30 9,3 C 39 % 0 % 1029,6 hPa 0,0 l/m NO 56 0 min 0,0 km/h (0 Bft)
29.05.2020 02:25 9,3 C 36 % 0 % 1029,6 hPa 0,0 l/m NO 56 0 min 0,0 km/h (0 Bft)
29.05.2020 02:20 9,8 C 36 % 0 % 1029,5 hPa 0,0 l/m NO 56 0 min 0,0 km/h (0 Bft)
29.05.2020 02:15 10,1 C 36 % 0 % 1029,5 hPa 0,0 l/m NO 56 0 min 0,0 km/h (0 Bft)
29.05.2020 02:10 10,3 C 36 % 0 % 1029,5 hPa 0,0 l/m NO 56 0 min 0,0 km/h (0 Bft)
29.05.2020 02:05 10,4 C 36 % 0 % 1029,5 hPa 0,0 l/m NO 56 0 min 0,0 km/h (0 Bft)
29.05.2020 02:00 10,4 C 36 % 0 % 1029,5 hPa 0,0 l/m NO 56 0 min 7,8 km/h (2 Bft)
29.05.2020 01:55 10,1 C 34 % 0 % 1029,5 hPa 0,0 l/m N-NO 18 0 min 6,9 km/h (2 Bft)
29.05.2020 01:50 10,0 C 34 % 0 % 1029,5 hPa 0,0 l/m N-NW 330 0 min 0,0 km/h (0 Bft)
29.05.2020 01:45 10,3 C 34 % 0 % 1029,5 hPa 0,0 l/m N 357 0 min 0,0 km/h (0 Bft)
29.05.2020 01:40 10,8 C 34 % 0 % 1029,4 hPa 0,0 l/m N-NO 30 0 min 0,0 km/h (0 Bft)
29.05.2020 01:35 11,3 C 33 % 0 % 1029,4 hPa 0,0 l/m N-NO 30 0 min 0,0 km/h (0 Bft)
29.05.2020 01:30 11,8 C 33 % 0 % 1029,3 hPa 0,0 l/m N-NO 30 0 min 7,8 km/h (2 Bft)
29.05.2020 01:25 12,1 C 33 % 0 % 1029,3 hPa 0,0 l/m NO 35 0 min 10,4 km/h (2 Bft)
29.05.2020 01:20 12,2 C 33 % 0 % 1029,3 hPa 0,0 l/m N-NO 33 0 min 11,2 km/h (2 Bft)
29.05.2020 01:15 12,3 C 33 % 0 % 1029,3 hPa 0,0 l/m N-NO 33 0 min 11,2 km/h (2 Bft)
29.05.2020 01:10 12,4 C 33 % 0 % 1029,3 hPa 0,0 l/m NO 44 0 min 9,5 km/h (2 Bft)
29.05.2020 01:05 12,4 C 33 % 0 % 1029,3 hPa 0,0 l/m N-NO 29 0 min 10,4 km/h (2 Bft)
29.05.2020 01:00 12,5 C 33 % 0 % 1029,2 hPa 0,0 l/m N-NO 32 0 min 11,2 km/h (2 Bft)
29.05.2020 00:55 12,6 C 33 % 0 % 1029,2 hPa 0,0 l/m N-NO 25 0 min 11,2 km/h (2 Bft)
29.05.2020 00:50 12,8 C 33 % 0 % 1029,2 hPa 0,0 l/m N-NO 15 0 min 9,5 km/h (2 Bft)
29.05.2020 00:45 13,0 C 32 % 0 % 1029,2 hPa 0,0 l/m NO 34 0 min 11,2 km/h (2 Bft)
29.05.2020 00:40 13,1 C 32 % 0 % 1029,2 hPa 0,0 l/m N-NO 30 0 min 7,8 km/h (2 Bft)
29.05.2020 00:35 13,2 C 32 % 0 % 1029,2 hPa 0,0 l/m NO 40 0 min 14,7 km/h (3 Bft)
29.05.2020 00:30 13,3 C 32 % 0 % 1029,2 hPa 0,0 l/m NO 45 0 min 13,0 km/h (3 Bft)
29.05.2020 00:25 13,4 C 32 % 0 % 1029,2 hPa 0,0 l/m N-NO 23 0 min 12,1 km/h (2 Bft)
29.05.2020 00:20 13,5 C 32 % 0 % 1029,1 hPa 0,0 l/m N-NO 32 0 min 12,1 km/h (2 Bft)
29.05.2020 00:15 13,6 C 32 % 0 % 1029,1 hPa 0,0 l/m O-NO 58 0 min 14,7 km/h (3 Bft)
29.05.2020 00:10 13,6 C 32 % 0 % 1029,1 hPa 0,0 l/m NO 52 0 min 13,8 km/h (3 Bft)
29.05.2020 00:05 13,6 C 32 % 0 % 1029,1 hPa 0,0 l/m NO 48 0 min 15,6 km/h (3 Bft)
29.05.2020 00:00 13,7 C 32 % 0 % 1029,1 hPa 0,0 l/m NO 44 0 min 15,6 km/h (3 Bft)
_ Min-Zeit 05:30 00:00 - 03:20 - - - - 01:35
Minimum _ 6,5 C 32 % - 1028,5 hPa - - - - 0,0 km/h (0 Bft)
_ Max-Zeit 00:00 05:40 06:10 02:35 00:00 - - 05:40 00:00
Maximum _ 13,7 C 54 % 89 % 1029,6 hPa 0,0 l/m - - 5 min 15,6 km/h
NO (3 Bft)
Durchschnitt _ 9,5 C 41 % #40 min. 1029,0 hPa #0,0 l/m N-NO - #40 min. 3,1 km/h (1 Bft)